Alexandroupoli, Greece

10:18 PM EEST on April 25, 2017 (GMT +0300)
Dimokritos

Weather History for LGAL - October, 2012

Change the Weather History Date:

Saturday, October 27, 2012

  Actual Average Record
Temperature  
Mean Temperature 61 °F -  
Max Temperature 71 °F 60 °F 71 °F (2004)
Min Temperature 51 °F 45 °F 33 °F (1997)
Degree Days  
Heating Degree Days 4    
Growing Degree Days 11 (Base 50)    
Moisture  
Dew Point 57 °F    
Average Humidity 84    
Maximum Humidity 100    
Minimum Humidity 60    
Precipitation  
Precipitation 0.00 in 0.10 in - ()
Sea Level Pressure  
Sea Level Pressure 29.83 in    
Wind  
Wind Speed 6 mph ()    
Max Wind Speed 23 mph    
Max Gust Speed 37 mph    
Visibility 6.2 miles    
Events Rain    
Averages and records for this station are not official NWS values.
T = Trace of Precipitation, MM = Missing Value Source: Averaged Metar Reports

Daily Weather History Graph

Daily Weather History Graph

Search for Another Location

Airport or City:

Trip Planner

Search our weather history database for the weather conditions in past years. The results will help you decide how hot, cold, wet, or windy it might be!

Date:

Astronomy

Oct. 27, 2012 Rise Set
Actual Time 7:41 AM EEST 6:18 PM EEST
Civil Twilight 7:13 AM EEST 6:46 PM EEST
Nautical Twilight 6:40 AM EEST 7:18 PM EEST
Astronomical Twilight 6:09 AM EEST 7:50 PM EEST
Moon 4:55 PM EEST (10/27) 5:16 AM EEST (10/27)
Length of Visible Light 11h 33m
Length of Day
10h 37m
Waxing Gibbous, 94% of the Moon is Illuminated
Oct 27
Waxing Gibbous
Oct 29
Full
Nov 7
Last Quarter
Nov 14
New
Nov 20
First Quarter

Hourly Weather History & Observations

Time (EEST) Temp. Dew Point Humidity Pressure Visibility Wind Dir Wind Speed Gust Speed Precip Events Conditions
12:20 AM 53.6 °F 51.8 °F 94% 29.89 in 6.2 mi Calm Calm - N/A   Partly Cloudy
12:50 AM 53.6 °F 51.8 °F 94% 29.89 in 6.2 mi Calm Calm - N/A   Partly Cloudy
1:20 AM 53.6 °F 51.8 °F 94% 29.89 in 6.2 mi Calm Calm - N/A   Partly Cloudy
1:50 AM 53.6 °F 51.8 °F 94% 29.89 in 6.2 mi Calm Calm - N/A   Partly Cloudy
2:20 AM 53.6 °F 51.8 °F 94% 29.89 in 6.2 mi Calm Calm - N/A   Partly Cloudy
2:50 AM 53.6 °F 50.0 °F 88% 29.89 in 6.2 mi Calm Calm - N/A   Partly Cloudy
3:00 AM 53 °F 51 °F 89% 29.91 in 6 mi Calm Calm - -   Scattered Clouds
3:20 AM 53.6 °F 50.0 °F 88% 29.89 in 6.2 mi Calm Calm - N/A   Partly Cloudy
3:50 AM 53.6 °F 50.0 °F 88% 29.89 in 6.2 mi Calm Calm - N/A   Partly Cloudy
4:20 AM 53.6 °F 50.0 °F 88% 29.89 in 6.2 mi Calm Calm - N/A   Partly Cloudy
4:50 AM 51.8 °F 50.0 °F 94% 29.89 in 6.2 mi Calm Calm - N/A   Partly Cloudy
5:20 AM 51.8 °F 50.0 °F 94% 29.89 in 6.2 mi Calm Calm - N/A   Partly Cloudy
5:50 AM 51.8 °F 50.0 °F 94% 29.89 in 6.2 mi Calm Calm - N/A   Partly Cloudy
6:20 AM 51.8 °F 50.0 °F 94% 29.89 in 6.2 mi Calm Calm - N/A   Partly Cloudy
6:50 AM 51.8 °F 50.0 °F 94% 29.89 in 6.2 mi Variable 3.5 mph - N/A   Partly Cloudy
7:20 AM 53.6 °F 51.8 °F 94% 29.89 in 6.2 mi Variable 3.5 mph - N/A   Partly Cloudy
7:50 AM 53.6 °F 51.8 °F 94% 29.86 in 6.2 mi Variable 3.5 mph - N/A   Scattered Clouds
8:20 AM 53.6 °F 51.8 °F 94% 29.86 in 6.2 mi Variable 3.5 mph - N/A   Scattered Clouds
8:50 AM 55.4 °F 55.4 °F 100% 29.86 in 6.2 mi NNE 4.6 mph - N/A   Scattered Clouds
9:00 AM 56 °F 55 °F 95% 29.88 in 6 mi NNE 4.6 mph - -   Partly Cloudy
9:20 AM 57.2 °F 55.4 °F 94% 29.86 in 6.2 mi Calm Calm - N/A   Scattered Clouds
9:50 AM 59.0 °F 57.2 °F 94% 29.86 in 6.2 mi Variable 3.5 mph - N/A   Scattered Clouds
10:20 AM 60.8 °F 57.2 °F 88% 29.86 in 6.2 mi East 4.6 mph - N/A   Scattered Clouds
10:50 AM 64.4 °F 59.0 °F 83% 29.86 in 6.2 mi SE 6.9 mph - N/A   Scattered Clouds
11:20 AM 66.2 °F 59.0 °F 78% 29.86 in 6.2 mi SSE 11.5 mph - N/A   Scattered Clouds
11:50 AM 68.0 °F 57.2 °F 68% 29.86 in 6.2 mi South 10.4 mph - N/A   Mostly Cloudy
12:20 PM 68.0 °F 57.2 °F 68% 29.86 in 6.2 mi South 11.5 mph - N/A   Mostly Cloudy
12:50 PM 69.8 °F 57.2 °F 64% 29.86 in 6.2 mi South 10.4 mph - N/A   Mostly Cloudy
1:20 PM 71.6 °F 57.2 °F 60% 29.86 in 6.2 mi South 11.5 mph - N/A   Mostly Cloudy
1:50 PM 69.8 °F 57.2 °F 64% 29.83 in 6.2 mi South 12.7 mph - N/A   Mostly Cloudy
2:20 PM 69.8 °F 57.2 °F 64% 29.83 in 6.2 mi South 11.5 mph - N/A   Mostly Cloudy
2:50 PM 69.8 °F 59.0 °F 68% 29.80 in 6.2 mi South 16.1 mph - N/A   Mostly Cloudy
3:00 PM 69 °F 58 °F 61% 29.81 in 6 mi South 16.1 mph - -   Partly Cloudy
3:20 PM 68.0 °F 57.2 °F 68% 29.80 in 6.2 mi South 15.0 mph 26.5 mph N/A   Mostly Cloudy
3:50 PM 71.6 °F 62.6 °F 73% 29.80 in 6.2 mi South 13.8 mph 25.3 mph N/A   Mostly Cloudy
4:20 PM 71.6 °F 62.6 °F 73% 29.77 in 6.2 mi South 16.1 mph - N/A   Mostly Cloudy
4:50 PM 71.6 °F 62.6 °F 73% 29.77 in 6.2 mi South 16.1 mph 27.6 mph N/A   Mostly Cloudy
5:20 PM 69.8 °F 62.6 °F 78% 29.77 in 6.2 mi South 17.3 mph 28.8 mph N/A   Mostly Cloudy
5:50 PM 69.8 °F 64.4 °F 83% 29.77 in 6.2 mi South 17.3 mph 28.8 mph N/A Rain Light Rain
6:20 PM 69.8 °F 64.4 °F 83% 29.77 in 6.2 mi South 18.4 mph 29.9 mph N/A Rain Light Rain
6:50 PM 68.0 °F 64.4 °F 88% 29.74 in 6.2 mi South 19.6 mph 32.2 mph N/A Rain Light Rain
7:20 PM 68.0 °F 64.4 °F 88% 29.74 in 6.2 mi South 18.4 mph 29.9 mph N/A Rain Light Rain
7:50 PM 66.2 °F 62.6 °F 88% 29.74 in 6.2 mi SSW 18.4 mph 29.9 mph N/A   Overcast
8:20 PM 66.2 °F 62.6 °F 88% 29.74 in 6.2 mi South 20.7 mph 32.2 mph N/A   Overcast
8:50 PM 69.8 °F 64.4 °F 83% 29.74 in 6.2 mi South 19.6 mph 31.1 mph N/A   Overcast
9:00 PM 70 °F 65 °F 78% 29.76 in 6 mi South 19.6 mph - -   Partly Cloudy
9:20 PM 69.8 °F 64.4 °F 83% 29.74 in 6.2 mi South 18.4 mph 29.9 mph N/A   Overcast
9:50 PM 68.0 °F 62.6 °F 83% 29.77 in 6.2 mi South 21.9 mph 34.5 mph N/A   Mostly Cloudy
10:20 PM 68.0 °F 62.6 °F 83% 29.77 in 6.2 mi South 21.9 mph 36.8 mph N/A   Mostly Cloudy
10:50 PM 66.2 °F 60.8 °F 83% 29.77 in 6.2 mi South 23.0 mph 34.5 mph N/A   Mostly Cloudy
11:20 PM 66.2 °F 60.8 °F 83% 29.77 in 6.2 mi South 21.9 mph 33.4 mph N/A   Mostly Cloudy
11:50 PM 66.2 °F 60.8 °F 83% 29.77 in 6.2 mi South 18.4 mph 29.9 mph N/A   Mostly Cloudy